Regional Weather Roundup
Issued by NWS Green Bay, WI

Home | Current Version | Previous Version | Graphics & Text | Print | Product List | Glossary Off
Versions: 1 2 3 4 5 6 7 8 9 10 11 12 13 14 15 16 17 18 19 20 21 22 23 24 25 26 27 28 29 30 31 32 33 34 35 36 37 38 39 40 41 42 43 44 45 46 47 48 49 50

000
ASUS43 KGRB 010259
RWRGRB

NORTH-CENTRAL AND NORTHEAST WISCONSIN REGIONAL WEATHER ROUNDUP
NATIONAL WEATHER SERVICE GREEN BAY WI
1000 PM CDT TUE MAR 31 2015

WIZ005-009-010>012-018-019-010400-
NORTH CENTRAL WISCONSIN

CITY           SKY/WX    TMP DP  RH WIND       PRES   REMARKS
IRONWOOD       PTCLDY    30  28  93 E7        29.93R
MANITOWISH WTR NOT AVBL
ARBOR VITAE    NOT AVBL
EAGLE RIVER    NOT AVBL
LAND O LAKES   NOT AVBL
RHINELANDER    CLEAR     35  29  78 CALM      29.94S
PHILLIPS       NOT AVBL
ANTIGO         NOT AVBL
TOMAHAWK       NOT AVBL
MERRILL        NOT AVBL
$$

WIZ013-073-010400-
NORTHEAST WISCONSIN

CITY           SKY/WX    TMP DP  RH WIND       PRES   REMARKS
IRON MOUNTAIN  CLEAR     33  31  92 N3        29.93R
MARINETTE      CLEAR     32  27  80 NE3       29.95S
$$

WIZ017-030-035>037-045-010400-
CENTRAL WISCONSIN

CITY           SKY/WX    TMP DP  RH WIND       PRES   REMARKS
MEDFORD        NOT AVBL
WAUSAU         CLEAR     42  31  64 E6        29.93R
MOSINEE        CLEAR     43  32  65 NE8       29.95
MARSHFIELD     CLEAR     45  27  49 NE9       29.93R
WISC RAPIDS    CLEAR     47  25  42 N7        29.93R
STEVENS POINT  NOT AVBL
WAUPACA        NOT AVBL
SHAWANO        NOT AVBL
CLINTONVILLE   NOT AVBL
$$

WIZ038-039-048-051-010400-
FOX VALLEY

CITY           SKY/WX    TMP DP  RH WIND       PRES   REMARKS
NWS GREEN BAY  CLEAR     38  32  79 NE8       29.96R
APPLETON       CLEAR     45  32  61 NE12      29.95R
OSHKOSH        CLEAR     46  32  58 NE12G21   29.94R
FOND DU LAC    CLEAR     38  29  70 CALM      29.92R
$$

WIZ022-050-052-010400-
EAST CENTRAL WISCONSIN

CITY           SKY/WX    TMP DP  RH WIND       PRES   REMARKS
STURGEON BAY   CLEAR     36  28  75 NE7       29.96S
MANITOWOC      NOT AVBL
SHEBOYGAN      CLEAR     35  31  85 CALM      29.94R
$$

LMZ563-521-522-541>543-010400-
LAKESHORE

STATION/POSITION TIME  TEMP    WIND        PRES    VSBY  WAVE
                       AIR SEA DIR/SP/G                  HT/PER
                 (UTC) (F)     (DEG/KT/KT) (MB)    (MI)  (FT/S)
SHEBOYGAN LKSHOR 0200   40     190/ 13/ 15 1013.8R
KEWAUNEE LKSHORE 0200   41      40/  4/  7 1013.3R
NORTHPORT PIER   0200   34      90/  5/  8 1014.6R
SISTER BAY LKSHO 0200   32     130/  7/ 10   N/A
CHAMBERS ISLAND  0200   33      40/  2/  6 1014.6R
MENOMINEE LKSHOR 0200   33     360/  9     1014.8R
$$



USA.gov is the U.S. government's official web portal to all federal, state and local government web resources and services.